DO6MJ-1 Weather Reports


Display with metric or nautical units.
time (UTC)temp
F
wind
direction
speed
MPH
gust
MPH
rain 1hr
in
rain 24hr
in
rain mn
in
humidity
%
barometer
mb
20260506154330 49 45 0.0 10.0 0.04 0.58 0.58 94 999.8
20260506152330 49 22 0.0 10.0 0.02 0.56 0.56 94 999.8
20260506150329 49 22 0.0 10.0 0.00 0.54 0.54 94 999.8
20260506144329 49 39 1.0 10.0 0.00 0.54 0.54 94 999.9
20260506142329 49 51 1.0 10.0 0.02 0.54 0.54 94 999.9
20260506140329 49 48 1.0 10.0 0.02 0.54 0.54 94 999.9
20260506134328 49 55 1.0 10.0 0.02 0.54 0.54 94 999.9
20260506132328 49 53 0.0 10.0 0.00 0.52 0.52 94 1000.0
20260506130328 49 44 0.0 10.0 0.00 0.52 0.52 94 1000.0
20260506124327 49 58 0.0 10.0 0.00 0.52 0.52 94 1000.0
20260506122327 49 56 0.0 10.0 0.00 0.52 0.52 94 999.9
20260506120327 49 62 0.0 10.0 0.00 0.52 0.52 94 999.7
20260506114327 49 45 1.0 8.0 0.00 0.52 0.52 94 999.9
20260506112326 49 46 1.0 8.0 0.00 0.52 0.52 94 999.8
20260506110327 49 45 1.0 8.0 0.02 0.52 0.52 94 999.7
20260506104326 48 45 0.0 8.0 0.02 0.54 0.52 94 999.7
20260506102325 48 47 1.0 8.0 0.04 0.54 0.52 94 999.6
20260506100325 47 59 1.0 8.0 0.04 0.52 0.50 94 999.6
20260506094325 47 45 0.0 8.0 0.06 0.52 0.50 95 999.4
20260506092325 47 45 0.0 8.0 0.06 0.50 0.48 95 999.4
20260506090326 46 45 0.0 8.0 0.06 0.48 0.46 95 999.5
20260506084324 46 47 0.0 8.0 0.06 0.46 0.44 95 999.2
20260506082324 45 25 0.0 8.0 0.06 0.46 0.42 94 999.2
20260506080324 45 45 0.0 8.0 0.06 0.48 0.40 94 999.3
20260506072323 45 45 0.0 8.0 0.06 0.46 0.36 94 998.9
20260506070323 45 33 0.0 8.0 0.08 0.44 0.34 94 999.1
20260506062322 45 67 0.0 8.0 0.08 0.42 0.30 94 998.8
20260506060323 45 22 0.0 8.0 0.08 0.38 0.26 94 998.8
20260506050321 46 22 0.0 8.0 0.08 0.32 0.18 94 998.9
20260506044321 46 45 0.0 8.0 0.08 0.30 0.16 94 998.8
20260506042320 47 39 0.0 8.0 0.08 0.28 0.14 93 998.9
20260506040320 47 22 0.0 8.0 0.06 0.24 0.10 93 998.9
20260506034320 47 45 0.0 8.0 0.06 0.22 0.08 93 999.0
20260506032320 47 54 0.0 8.0 0.06 0.22 0.06 93 999.1
20260506030319 47 55 0.0 8.0 0.04 0.20 0.04 92 999.1
20260506024319 48 44 0.0 8.0 0.02 0.18 0.02 92 999.1
20260506022319 48 55 0.0 8.0 0.00 0.16 0.00 91 999.4
20260506020318 49 51 0.0 8.0 0.00 0.16 0.00 90 999.5
20260506014318 49 68 1.0 8.0 0.00 0.18 0.00 89 999.5
20260506012319 50 44 3.0 8.0 0.00 0.18 0.00 89 999.6
20260506010318 50 49 0.0 8.0 0.00 0.18 0.00 89 999.7
20260506004317 51 53 1.0 6.0 0.00 0.18 0.00 90 999.8
20260506002317 51 52 0.0 6.0 0.00 0.18 0.00 90 1000.0
20260506000317 51 45 0.0 6.0 0.00 0.20 0.00 90 1000.4
20260505234316 51 45 0.0 6.0 0.00 0.20 0.00 90 1000.6
20260505232316 51 47 0.0 6.0 0.00 0.20 0.00 90 1000.6
20260505230316 51 45 0.0 6.0 0.00 0.20 0.00 90 1000.6
20260505224316 51 65 0.0 6.0 0.00 0.20 0.00 91 1000.8
20260505222315 51 43 1.0 6.0 0.00 0.20 0.00 91 1000.9
20260505220315 51 45 0.0 0.0 0.00 0.20 0.00 91 1000.9
20260505214315 51 48 0.0 8.0 0.00 0.20 0.20 91 1000.9
20260505212315 52 5 0.0 8.0 0.00 0.22 0.20 91 1001.1
20260505210314 52 50 0.0 8.0 0.00 0.22 0.20 91 1001.5
20260505204314 52 49 3.0 8.0 0.00 0.22 0.20 90 1001.2
20260505202314 52 49 2.0 8.0 0.00 0.22 0.20 90 1001.3
20260505200313 52 73 0.0 8.0 0.00 0.22 0.20 90 1001.3
20260505194313 52 66 0.0 8.0 0.00 0.24 0.20 89 1001.3
20260505192313 53 46 2.0 7.0 0.00 0.24 0.20 89 1001.3
20260505190312 53 45 0.0 7.0 0.00 0.24 0.20 89 1001.3
20260505184312 53 45 2.0 7.0 0.00 0.24 0.20 89 1001.1
20260505182312 54 51 2.0 7.0 0.00 0.24 0.20 89 1001.1
20260505180312 54 47 0.0 7.0 0.00 0.24 0.20 89 1001.2
20260505174311 54 36 0.0 7.0 0.00 0.24 0.20 89 1001.3
20260505172312 54 97 0.0 7.0 0.00 0.24 0.20 88 1001.5
20260505170311 55 30 0.0 7.0 0.00 0.24 0.20 88 1001.5
20260505164310 55 54 1.0 7.0 0.00 0.24 0.20 88 1001.5
20260505162310 55 45 0.0 7.0 0.00 0.24 0.20 87 1001.6
20260505160310 56 62 1.0 7.0 0.00 0.24 0.20 87 1001.7